Location: Aulus
(42.7909°N, 1.3399°E)
Time: 05:19:02
(UTC+00:00)

Cosmos 1934 Rocket - Pass Details

Date: 19 May 2025
Orbit: 938 x 997 km, 83.0° (Epoch: 13 June)

Event Time Altitude Azimuth Distance (km) Brightness Sun altitude
Rises 23:10:21 0° 349° (NNW) 3,672 8.4 -26.5°
Reaches altitude 10° 23:12:53 10° 346° (NNW) 2,729 7.3 -26.6°
Maximum altitude 23:19:03 63° 267° (W) 1,090 4.2 -26.8°
Enters shadow 23:20:03 56° 225° (SW) 1,164 4.1 -26.8°
